Location: Andershausen
(51.8462°N, 9.8595°E)
Time: 07:02:38
(UTC+00:00)

Cosmos 2151 Rocket - Pass Details

Date: 18 November 2025
Orbit: 611 x 636 km, 82.5° (Epoch: 11 December)

Event Time Altitude Azimuth Distance (km) Brightness Sun altitude
Rises 17:54:43 0° 198° (SSW) 2,921 7.3 -22.6°
Reaches altitude 10° 17:56:58 10° 202° (SSW) 2,019 6.5 -23.0°
Maximum altitude 18:01:24 63° 283° (WNW) 716 4.0 -23.7°
Enters shadow 18:05:06 15° 3° (N) 1,727 5.8 -24.2°
